Location: Deneb Observatory
(47.2267°N, 100.4953°W)
Time: 10:31:48
(UTC-05:00)

Amateur Radio Satellites - All Passes

Search period start: 01 May 2016 10:01
Search period end: 02 May 2016 10:01
Location: Deneb Observatory, 47.2267°N, 100.4953°W

Satellite Date Start Highest point End Downlink Frequencies (MHz)
Time Altitude Azimuth
DOVE 4 01 May 10:03:55 10:08:44 38° 293° (WNW) 10:13:20 437.250
Oscar 11 01 May 10:04:20 10:07:11 17° 91° (E) 10:10:03 145.826/435.025
AUBIESAT-1 01 May 10:06:21 10:09:49 28° 300° (WNW) 10:13:02 437.475
YUBILEINY 01 May 10:07:00 10:08:53 11° 292° (WNW) 10:10:47 435.215
TIGRISAT 01 May 10:10:33 10:14:15 24° 64° (ENE) 10:17:55 435.000
FUNcube-1 01 May 10:13:24 10:16:12 17° 90° (E) 10:18:56 145.935
BRITE-PL 01 May 10:17:33 10:19:57 13° 307° (NW) 10:22:22 437.365/2234.400
UWE-3 01 May 10:19:15 10:23:03 30° 95° (E) 10:26:44 435.000/436.395/437.385
CUBEBUG 2 01 May 10:22:42 10:26:56 45° 98° (E) 10:31:00 437.445
HO-68 01 May 10:24:12 10:31:25 86° 289° (WNW) 10:38:35 435.675
CUTE 1.7 + AOD 2 01 May 10:24:59 10:29:08 57° 287° (WNW) 10:33:16 437.475
Cubesat XI-IV 01 May 10:26:08 10:27:32 11° 309° (NW) 10:28:55 437.490
ANTELSAT 01 May 10:33:54 10:38:14 40° 69° (ENE) 10:42:31 437.575/2403.000
Cosmos 2504 01 May 10:49:37 10:54:26 19° 282° (WNW) 10:59:26 435.465 / 435.565
QB50P2 01 May 10:52:22 10:54:49 15° 60° (ENE) 10:57:16 145.880/145.840
Cosmos 2491 01 May 10:53:46 10:59:03 17° 308° (NW) 11:04:22 435.465 / 435.565
ZACube-1 01 May 10:53:47 10:57:53 46° 99° (E) 11:01:54 437.345
POLYITAN 1 01 May 10:54:26 10:56:56 15° 60° (ENE) 10:59:26 437.675
DUCHIFAT 1 01 May 10:54:48 10:56:58 14° 59° (ENE) 10:59:10 145.980
SEEDS 01 May 10:55:42 10:59:34 37° 291° (WNW) 11:03:26 437.485
POPSAT HIP 1 01 May 10:57:25 11:00:00 16° 60° (ENE) 11:02:36 437.405
QB50P1 01 May 11:00:35 11:03:23 17° 61° (ENE) 11:06:10 145.935-145.965
CINEMA 3 01 May 11:00:43 11:04:48 29° 295° (WNW) 11:08:43 145.822/145.860
COMPASS 1 01 May 11:02:16 11:06:12 42° 290° (WNW) 11:10:07 437.405
SO-50 01 May 11:04:08 11:07:46 20° 330° (NNW) 11:11:24 436.795
ISS 01 May 11:13:16 11:16:26 45° 347° (NNW) 11:19:36 145.825
Cosmos 2499 01 May 11:14:51 11:18:03 13° 53° (NE) 11:21:19 435.465 / 435.565
RS-15 01 May 11:21:08 11:23:40 11° 271° (W) 11:26:13 29.354- 29.394
DELFI C3 01 May 11:27:17 11:31:15 62° 101° (E) 11:35:12 145.870
UNISAT 6 01 May 11:27:52 11:32:30 63° 259° (WSW) 11:37:05 437.425
CANX-2 01 May 11:29:11 11:31:17 14° 300° (WNW) 11:33:23 2200.000
NANOSAT C BR1 01 May 11:35:06 11:38:58 34° 68° (ENE) 11:42:50 145.865
AAUSAT CUBESAT 2 01 May 11:35:16 11:38:39 25° 294° (WNW) 11:42:02 437.432
Oscar 11 01 May 11:39:27 11:43:39 52° 288° (WNW) 11:47:49 145.826/435.025
BUGSAT 1 01 May 11:42:48 11:45:59 21° 63° (ENE) 11:49:11 437.445
TIGRISAT 01 May 11:46:15 11:50:43 44° 261° (W) 11:55:08 435.000
FUNcube-1 01 May 11:48:40 11:52:47 49° 288° (WNW) 11:56:47 145.935
ESTCUBE 1 01 May 11:52:14 11:53:56 12° 87° (E) 11:55:38 437.505/2401.250
GONETS M04 01 May 11:53:02 12:01:13 41° 68° (ENE) 12:09:17
UWE-3 01 May 11:55:45 11:59:28 29° 294° (WNW) 12:03:06 435.000/436.395/437.385
CUBEBUG 2 01 May 12:00:00 12:03:15 21° 297° (WNW) 12:06:26 437.445
ANTELSAT 01 May 12:11:12 12:15:03 25° 266° (W) 12:18:53 437.575/2403.000
HUMSAT D 01 May 12:12:01 12:16:08 85° 103° (ESE) 12:20:12 437.325/437.525
HO-68 01 May 12:13:05 12:18:13 22° 309° (NW) 12:23:20 435.675
CUBEBUG 1 01 May 12:21:22 12:24:16 17° 90° (E) 12:27:07 437.445
AIST 1 01 May 12:24:42 12:29:03 54° 77° (ENE) 12:33:22
QB50P2 01 May 12:25:51 12:30:06 68° 257° (WSW) 12:34:25 145.880/145.840
DUCHIFAT 1 01 May 12:27:51 12:32:07 75° 257° (WSW) 12:36:25 145.980
POLYITAN 1 01 May 12:27:58 12:32:15 67° 258° (WSW) 12:36:34 437.675
ZACube-1 01 May 12:30:49 12:33:52 20° 297° (WNW) 12:36:53 437.345
POPSAT HIP 1 01 May 12:31:04 12:35:19 64° 258° (WSW) 12:39:37 437.405
QB50P1 01 May 12:34:31 12:38:45 58° 259° (W) 12:43:00 145.935-145.965
VELOX 1 01 May 12:43:29 12:47:19 27° 95° (E) 12:51:08 145.980
JAS-2 01 May 12:44:38 12:49:57 32° 59° (ENE) 12:55:51 435.910
DX 1 01 May 12:46:20 12:50:02 26° 95° (E) 12:53:42 434.975-435.025
SO-50 01 May 12:49:41 12:50:10 10° 354° (N) 12:50:40 436.795
ISS 01 May 12:50:13 12:53:19 38° 7° (N) 12:56:25 145.825
UKube-1 01 May 12:55:54 12:59:36 26° 95° (E) 13:03:16 .
DELFI C3 01 May 13:03:33 13:05:40 14° 299° (WNW) 13:07:47 145.870
AO-85 01 May 13:04:28 13:07:47 17° 108° (ESE) 13:11:05 145.980
Cosmos 2499 01 May 13:05:29 13:12:58 58° 76° (ENE) 13:21:01 435.465 / 435.565
NANOSAT C BR1 01 May 13:11:08 13:14:45 26° 266° (W) 13:18:22 145.865
PHONESAT 2.4 01 May 13:11:22 13:13:51 21° 171° (S) 13:16:21 2401.200-2431.200
50 SAT 01 May 13:12:52 13:16:31 64° 102° (ESE) 13:20:08 437.505
AISAT 01 May 13:14:58 13:19:25 59° 101° (ESE) 13:23:49 437.250
Gurwin Techsat 1B 01 May 13:16:26 13:19:30 16° 55° (NE) 13:22:34 435.225
BUGSAT 1 01 May 13:17:02 13:21:05 44° 261° (W) 13:25:11 437.445
ESTCUBE 1 01 May 13:26:47 13:31:21 82° 285° (WNW) 13:35:53 437.505/2401.250
SPROUT 01 May 13:28:46 13:32:38 31° 96° (E) 13:36:27 437.525
AO-7 01 May 13:30:34 13:34:06 13° 34° (NE) 13:37:39 29.400- 29.500
Oscar 19 01 May 13:32:49 13:37:40 42° 67° (ENE) 13:42:34 437.125/150
HUMSAT D 01 May 13:49:50 13:51:07 11° 302° (WNW) 13:52:25 437.325/437.525
GONETS M04 01 May 13:49:54 13:58:18 53° 271° (W) 14:06:37
CUBEBUG 1 01 May 13:56:32 14:00:55 57° 288° (WNW) 14:05:15 437.445
AIST 1 01 May 14:03:29 14:06:12 16° 276° (W) 14:08:54
TISAT 1 01 May 14:09:03 14:12:38 26° 95° (E) 14:16:10 437.305
VELOX 1 01 May 14:19:46 14:23:51 35° 293° (WNW) 14:27:54 145.980
DX 1 01 May 14:22:16 14:26:17 36° 293° (WNW) 14:30:18 434.975-435.025
ISS 01 May 14:26:43 14:30:00 85° 206° (SSW) 14:33:16 145.825
JAS-2 01 May 14:28:50 14:34:38 53° 262° (W) 14:41:17 435.910
SO-50 01 May 14:30:31 14:32:51 13° 19° (NNE) 14:35:10 436.795
UKube-1 01 May 14:31:46 14:35:42 34° 293° (WNW) 14:39:38 .
AO-85 01 May 14:42:09 14:47:38 89° 127° (SE) 14:53:03 145.980
PHONESAT 2.4 01 May 14:47:41 14:50:13 22° 188° (S) 14:52:44 2401.200-2431.200
ITAMSAT 1 01 May 14:47:59 14:52:44 38° 66° (ENE) 14:57:30 435.822/435.867
50 SAT 01 May 14:48:26 14:49:50 12° 299° (WNW) 14:51:13 437.505
AISAT 01 May 14:52:26 14:55:29 18° 299° (WNW) 14:58:31 437.250
ITUPSAT 1 01 May 14:52:42 14:55:30 15° 89° (E) 14:58:20 437.325
Gurwin Techsat 1B 01 May 14:53:23 14:58:42 88° 82° (E) 15:04:04 435.225
Cosmos 2499 01 May 14:59:09 15:05:44 33° 275° (W) 15:12:44 435.465 / 435.565
SWISSCUBE 01 May 15:02:22 15:06:00 21° 92° (E) 15:09:37 437.505
SPROUT 01 May 15:04:49 15:08:32 29° 294° (WNW) 15:12:13 437.525
ESTCUBE 1 01 May 15:05:49 15:07:25 12° 304° (WNW) 15:09:01 437.505/2401.250
Oscar 19 01 May 15:12:40 15:17:08 29° 266° (W) 15:21:38 437.125/150
AO-7 01 May 15:17:07 15:24:47 44° 58° (ENE) 15:32:29 29.400- 29.500
BEESAT 01 May 15:35:13 15:39:41 38° 98° (E) 15:44:07 436.000
TISAT 1 01 May 15:44:31 15:48:20 33° 293° (WNW) 15:52:08 437.305
ISS 01 May 16:04:00 16:06:04 16° 224° (SW) 16:08:06 145.825
SO-50 01 May 16:10:12 16:14:41 38° 42° (NE) 16:19:03 436.795
O/OREOS (USA 219) 01 May 16:10:37 16:15:07 57° 111° (ESE) 16:19:38 437.305
MOZHAYETS 4 01 May 16:21:57 16:23:03 11° 86° (E) 16:24:09
AO-85 01 May 16:24:24 16:28:49 25° 326° (NNW) 16:33:08 145.980
PHONESAT 2.4 01 May 16:25:37 16:26:25 11° 204° (SSW) 16:27:12 2401.200-2431.200
ITAMSAT 1 01 May 16:27:39 16:32:16 32° 264° (W) 16:36:54 435.822/435.867
KKS-1 01 May 16:28:07 16:31:17 19° 92° (E) 16:34:25 437.445
ITUPSAT 1 01 May 16:29:05 16:33:51 69° 288° (WNW) 16:38:35 437.325
Gurwin Techsat 1B 01 May 16:36:43 16:39:23 14° 273° (W) 16:42:03 435.225
SWISSCUBE 01 May 16:39:28 16:44:05 50° 290° (WNW) 16:48:40 437.505
CUSAT 1 01 May 16:48:38 16:52:06 73° 283° (WNW) 16:56:44 437.405
STARS 01 May 16:49:07 16:51:53 16° 90° (E) 16:54:38 437.465
HORYU 2 01 May 16:55:45 16:59:59 44° 69° (ENE) 17:04:14 437.375
NOAA 15 01 May 16:55:51 16:58:03 13° 53° (NE) 17:00:17 137.62
PCSat 01 May 16:59:23 17:04:37 52° 116° (ESE) 17:09:53 145.827
Cosmos 2491 01 May 17:02:05 17:08:06 20° 54° (NE) 17:14:05 435.465 / 435.565
AO-7 01 May 17:09:27 17:17:27 52° 259° (WSW) 17:25:31 29.400- 29.500
BEESAT 01 May 17:13:17 17:17:20 28° 296° (WNW) 17:21:23 436.000
DANDE 01 May 17:18:41 17:21:34 87° 270° (W) 17:25:14 436.750
LilacSat-2 01 May 17:43:29 17:44:47 11° 60° (ENE) 17:46:06 437.200
NOAA 18 01 May 17:46:05 17:50:48 30° 62° (ENE) 17:55:30 137.9125
CUTE-I 01 May 17:46:12 17:50:12 22° 59° (ENE) 17:54:11 437.470
AUBIESAT-1 01 May 17:48:54 17:50:25 12° 50° (NE) 17:51:55 437.475
SO-50 01 May 17:50:50 17:55:10 36° 242° (WSW) 17:59:21 436.795
O/OREOS (USA 219) 01 May 17:51:20 17:54:53 21° 310° (NW) 17:58:26 437.305
MOZHAYETS 4 01 May 17:56:17 18:00:54 90° 237° (WSW) 18:05:28
GOMX 1 01 May 17:56:32 17:58:52 13° 54° (NE) 18:01:15 467.674
CUBESAT XI-V 01 May 18:01:48 18:04:21 14° 88° (E) 18:06:54 437.345
KKS-1 01 May 18:03:47 18:08:10 51° 289° (WNW) 18:12:29 437.445
AO-85 01 May 18:09:20 18:11:12 12° 350° (N) 18:13:01 145.980
ITUPSAT 1 01 May 18:09:39 18:10:49 11° 306° (NW) 18:11:58 437.325
BRITE-PL 01 May 18:13:05 18:17:18 30° 64° (ENE) 18:21:48 437.365/2234.400
STARS 01 May 18:24:17 18:28:39 58° 288° (WNW) 18:32:57 437.465
Cubesat XI-IV 01 May 18:28:46 18:33:50 46° 67° (ENE) 18:38:54 437.490
NOAA 15 01 May 18:31:41 18:36:54 71° 72° (ENE) 18:42:12 137.62
HORYU 2 01 May 18:33:16 18:36:45 22° 267° (W) 18:40:13 437.375
PCSat 01 May 18:43:24 18:48:16 32° 317° (NW) 18:53:10 145.827
Cosmos 2491 01 May 18:57:49 19:06:42 76° 79° (E) 19:15:29 435.465 / 435.565
M-CUBED/EXP-1 PRIME 01 May 18:59:37 19:04:13 52° 66° (ENE) 19:08:45 437.505
BEESAT 3 01 May 19:08:57 19:11:32 17° 112° (ESE) 19:14:08 437.485
HO-68 01 May 19:10:22 19:15:45 24° 52° (NE) 19:21:09 435.675
YUBILEINY 01 May 19:14:23 19:22:11 38° 85° (E) 19:29:57 435.215
LilacSat-2 01 May 19:14:39 19:18:33 77° 259° (W) 19:22:26 437.200
BEESAT 2 01 May 19:14:52 19:16:20 12° 110° (ESE) 19:17:48 435.950
AUBIESAT-1 01 May 19:19:29 19:24:07 67° 68° (ENE) 19:28:40 437.475
CUTE-I 01 May 19:24:31 19:29:48 63° 258° (WSW) 19:35:06 437.470
NOAA 18 01 May 19:25:57 19:31:15 47° 260° (W) 19:36:35 137.9125
GOMX 1 01 May 19:30:56 19:35:57 74° 74° (ENE) 19:41:19 467.674
DOVE 4 01 May 19:34:01 19:38:51 44° 69° (ENE) 19:43:52 437.250
MOZHAYETS 4 01 May 19:35:22 19:37:23 13° 303° (WNW) 19:39:23
CUBESAT XI-V 01 May 19:37:34 19:42:16 73° 286° (WNW) 19:46:57 437.345
CUTE 1.7 + AOD 2 01 May 19:46:19 19:49:03 17° 62° (ENE) 19:51:49 437.475
Cosmos 2504 01 May 19:49:16 19:52:01 12° 74° (ENE) 19:54:45 435.465 / 435.565
BRITE-PL 01 May 19:51:04 19:55:36 41° 264° (W) 20:00:32 437.365/2234.400
AO-85 01 May 19:51:39 19:53:59 13° 15° (NNE) 19:56:15 145.980
Cubesat XI-IV 01 May 20:09:34 20:14:06 28° 266° (W) 20:18:38 437.490
NOAA 15 01 May 20:13:45 20:17:14 18° 270° (W) 20:20:44 137.62
SEEDS 01 May 20:15:15 20:18:36 24° 65° (ENE) 20:21:57 437.485
COMPASS 1 01 May 20:21:21 20:24:26 21° 64° (ENE) 20:27:31 437.405
STRAND 1 01 May 20:23:12 20:27:48 32° 96° (E) 20:32:22 437.568
CINEMA 3 01 May 20:27:08 20:31:56 48° 70° (ENE) 20:36:45 145.822/145.860
PCSat 01 May 20:31:34 20:33:27 12° 341° (NNW) 20:35:20 145.827
M-CUBED/EXP-1 PRIME 01 May 20:35:19 20:38:58 22° 262° (W) 20:42:36 437.505
BEESAT 3 01 May 20:44:57 20:48:51 56° 311° (NW) 20:52:46 437.485
CANX-2 01 May 20:47:12 20:51:24 76° 76° (ENE) 20:55:38 2200.000
BEESAT 2 01 May 20:49:35 20:53:36 81° 310° (NW) 20:57:37 435.950
AAUSAT CUBESAT 2 01 May 20:52:42 20:56:24 34° 69° (ENE) 21:00:08 437.432
HO-68 01 May 20:55:29 21:02:40 86° 252° (WSW) 21:09:53 435.675
Cosmos 2491 01 May 20:55:44 21:02:38 27° 281° (W) 21:09:31 435.465 / 435.565
AUBIESAT-1 01 May 20:56:00 20:58:58 17° 264° (W) 21:01:54 437.475
Oscar 11 01 May 21:02:05 21:05:17 21° 63° (ENE) 21:08:30 145.826/435.025
YUBILEINY 01 May 21:10:10 21:18:42 55° 287° (WNW) 21:27:14 435.215
GOMX 1 01 May 21:11:28 21:14:40 17° 274° (W) 21:18:00 467.674
FUNcube-1 01 May 21:11:34 21:15:02 22° 64° (ENE) 21:18:28 145.935
DOVE 4 01 May 21:12:18 21:16:42 29° 268° (W) 21:21:15 437.250
CUBESAT XI-V 01 May 21:17:37 21:18:49 11° 305° (NW) 21:20:00 437.345
UWE-3 01 May 21:18:38 21:22:55 38° 69° (ENE) 21:27:08 435.000/436.395/437.385
CUTE 1.7 + AOD 2 01 May 21:20:22 21:24:31 55° 260° (W) 21:28:40 437.475
RS-15 01 May 21:21:08 21:29:08 23° 98° (E) 21:37:23 29.354- 29.394
CUBEBUG 2 01 May 21:23:02 21:27:41 58° 72° (ENE) 21:32:16 437.445
AO-85 01 May 21:31:33 21:36:05 33° 39° (NE) 21:40:14 145.980
HUMSAT D 01 May 21:34:02 21:35:07 11° 58° (ENE) 21:36:13 437.325/437.525
PRISM 01 May 21:35:48 21:39:36 34° 97° (E) 21:43:25 437.425
Cosmos 2504 01 May 21:36:45 21:43:59 71° 95° (E) 21:51:06 435.465 / 435.565
SEEDS 01 May 21:50:18 21:54:09 35° 263° (W) 21:58:01 437.485
ZACube-1 01 May 21:51:59 21:56:25 55° 72° (ENE) 22:00:47 437.345
COMPASS 1 01 May 21:55:50 21:59:45 42° 262° (W) 22:03:42 437.405
STRAND 1 01 May 22:02:20 22:07:00 37° 294° (WNW) 22:11:40 437.568
CINEMA 3 01 May 22:05:11 22:09:16 25° 268° (W) 22:13:22 145.822/145.860
AIST 2 01 May 22:11:04 22:15:07 56° 122° (ESE) 22:19:11 435.215
DELFI C3 01 May 22:16:07 22:19:58 54° 72° (ENE) 22:23:50 145.870
BEESAT 3 01 May 22:25:36 22:27:24 13° 332° (NNW) 22:29:14 437.485
CANX-2 01 May 22:26:24 22:27:48 11° 272° (W) 22:29:13 2200.000
AAUSAT CUBESAT 2 01 May 22:28:37 22:31:59 24° 266° (W) 22:35:21 437.432
BEESAT 2 01 May 22:29:35 22:32:05 16° 328° (NNW) 22:34:36 435.950
Oscar 11 01 May 22:36:59 22:41:08 46° 261° (W) 22:45:19 145.826/435.025
AISAT 01 May 22:42:45 22:43:48 11° 55° (NE) 22:44:52 437.250
FUNcube-1 01 May 22:46:42 22:51:01 45° 261° (W) 22:55:20 145.935
HO-68 01 May 22:46:48 22:51:23 18° 272° (W) 22:56:01 435.675
ESTCUBE 1 01 May 22:54:21 22:57:17 17° 60° (ENE) 23:00:12 437.505/2401.250
UWE-3 01 May 22:55:33 22:59:27 26° 266° (W) 23:03:20 435.000/436.395/437.385
CUBEBUG 2 01 May 23:01:21 23:04:38 18° 270° (W) 23:07:54 437.445
HUMSAT D 01 May 23:05:51 23:10:06 87° 71° (ENE) 23:14:18 437.325/437.525
PRISM 01 May 23:11:22 23:14:49 25° 295° (WNW) 23:18:15 437.425
AO-85 01 May 23:12:07 23:16:44 45° 241° (WSW) 23:20:56 145.980
YUBILEINY 01 May 23:14:00 23:17:56 13° 312° (NW) 23:21:52 435.215
UNISAT 6 01 May 23:17:18 23:20:36 21° 92° (E) 23:23:52 437.425
CUBEBUG 1 01 May 23:20:15 23:23:34 21° 63° (ENE) 23:26:54 437.445
RS-15 01 May 23:28:13 23:39:32 80° 123° (ESE) 23:51:33 29.354- 29.394
ZACube-1 01 May 23:29:57 23:33:02 18° 269° (W) 23:36:04 437.345
Cosmos 2504 01 May 23:32:23 23:38:05 25° 297° (WNW) 23:43:47 435.465 / 435.565
TIGRISAT 01 May 23:34:53 23:38:43 29° 95° (E) 23:42:28 435.000
VELOX 1 01 May 23:43:36 23:47:38 36° 68° (ENE) 23:51:43 145.980
DX 1 01 May 23:44:38 23:48:33 33° 67° (ENE) 23:52:30 434.975-435.025
AIST 2 01 May 23:50:33 23:53:55 23° 322° (NW) 23:57:18 435.215
DELFI C3 01 May 23:53:04 23:55:11 14° 270° (W) 23:57:19 145.870
UKube-1 01 May 23:53:16 23:57:09 34° 67° (ENE) 00:01:04 .
50 SAT 01 May 23:54:22 23:57:53 46° 72° (ENE) 00:01:25 437.505
ANTELSAT 01 May 23:58:55 00:03:13 54° 100° (E) 00:07:25 437.575/2403.000
PCSat 02 May 00:01:15 00:05:17 20° 34° (NE) 00:09:18 145.827
QB50P2 02 May 00:08:52 00:11:29 16° 90° (E) 00:14:06 145.880/145.840
DUCHIFAT 1 02 May 00:10:24 00:12:40 14° 89° (E) 00:14:55 145.980
POLYITAN 1 02 May 00:10:59 00:13:38 16° 90° (E) 00:16:16 437.675
POPSAT HIP 1 02 May 00:13:49 00:16:35 17° 91° (E) 00:19:19 437.405
AISAT 02 May 00:15:03 00:19:30 76° 73° (ENE) 00:23:59 437.250
QB50P1 02 May 00:17:00 00:19:59 18° 91° (E) 00:22:55 145.935-145.965
SPROUT 02 May 00:25:10 00:29:07 36° 68° (ENE) 00:33:06 437.525
ESTCUBE 1 02 May 00:29:12 00:33:38 62° 259° (W) 00:38:06 437.505/2401.250
O/OREOS (USA 219) 02 May 00:38:40 00:42:29 25° 52° (NE) 00:46:14 437.305
NANOSAT C BR1 02 May 00:51:45 00:55:45 39° 98° (E) 00:59:41 145.865
UNISAT 6 02 May 00:53:25 00:57:33 42° 291° (WNW) 01:01:36 437.425
CUBEBUG 1 02 May 00:55:21 00:59:34 46° 261° (W) 01:03:51 437.445
BUGSAT 1 02 May 00:56:16 00:59:31 21° 93° (E) 01:02:43 437.445
AIST 1 02 May 00:57:38 01:01:16 27° 89° (E) 01:04:56
GONETS M04 02 May 00:58:13 01:06:15 41° 85° (E) 01:14:17
TISAT 1 02 May 01:03:35 01:07:16 29° 67° (ENE) 01:10:59 437.305
TIGRISAT 02 May 01:11:35 01:15:24 30° 294° (WNW) 01:19:08 435.000
VELOX 1 02 May 01:20:26 01:24:10 26° 265° (W) 01:27:57 145.980
DX 1 02 May 01:21:01 01:24:46 27° 265° (W) 01:28:33 434.975-435.025
UKube-1 02 May 01:29:34 01:33:14 27° 265° (W) 01:36:57 .
50 SAT 02 May 01:29:57 01:31:57 14° 269° (W) 01:33:57 437.505
JAS-2 02 May 01:34:11 01:40:26 26° 89° (E) 01:46:43 435.910
CUSAT 1 02 May 01:35:08 01:40:29 23° 63° (ENE) 01:46:25 437.405
ANTELSAT 02 May 01:36:35 01:39:33 18° 299° (WNW) 01:42:28 437.575/2403.000
RS-15 02 May 01:42:15 01:53:15 45° 331° (NNW) 02:04:48 29.354- 29.394
QB50P2 02 May 01:43:29 01:47:40 55° 288° (WNW) 01:51:48 145.880/145.840
Oscar 19 02 May 01:43:30 01:45:02 11° 86° (E) 01:46:34 437.125/150
PCSat 02 May 01:44:04 01:49:33 81° 56° (ENE) 01:54:58 145.827
DUCHIFAT 1 02 May 01:44:36 01:48:48 62° 287° (WNW) 01:52:56 145.980
POLYITAN 1 02 May 01:45:39 01:49:48 54° 288° (WNW) 01:53:55 437.675
Cosmos 2499 02 May 01:46:52 01:53:18 39° 87° (E) 01:59:47 435.465 / 435.565
POPSAT HIP 1 02 May 01:48:33 01:52:42 52° 289° (WNW) 01:56:48 437.405
QB50P1 02 May 01:51:56 01:56:02 47° 289° (WNW) 02:00:05 145.935-145.965
AISAT 02 May 01:54:34 01:56:32 13° 272° (W) 01:58:30 437.250
SPROUT 02 May 02:01:36 02:05:10 25° 266° (W) 02:08:46 437.525
ITUPSAT 1 02 May 02:02:01 02:05:58 26° 64° (ENE) 02:09:55 437.325
DANDE 02 May 02:08:20 02:12:44 19° 64° (ENE) 02:17:46 436.750
SWISSCUBE 02 May 02:11:35 02:15:52 35° 67° (ENE) 02:20:11 437.505
O/OREOS (USA 219) 02 May 02:17:46 02:22:05 43° 252° (WSW) 02:26:20 437.305
NANOSAT C BR1 02 May 02:27:56 02:31:17 23° 296° (WNW) 02:34:37 145.865
BUGSAT 1 02 May 02:31:06 02:35:04 40° 291° (WNW) 02:38:57 437.445
AIST 1 02 May 02:34:55 02:38:46 31° 288° (WNW) 02:42:40
TISAT 1 02 May 02:39:09 02:42:53 30° 264° (W) 02:46:40 437.305
BEESAT 02 May 02:44:25 02:49:07 63° 72° (ENE) 02:53:50 436.000
GONETS M04 02 May 02:54:19 03:02:53 52° 287° (WNW) 03:11:29
Gurwin Techsat 1B 02 May 03:06:50 03:11:22 28° 94° (E) 03:15:52 435.225
CUSAT 1 02 May 03:16:18 03:23:18 88° 260° (W) 03:31:20 437.405
JAS-2 02 May 03:18:22 03:26:06 79° 288° (WNW) 03:33:57 435.910
Oscar 19 02 May 03:19:57 03:25:12 80° 104° (ESE) 03:30:25 437.125/150
BEESAT 3 02 May 03:22:06 03:25:40 31° 43° (NE) 03:29:14 437.485
MOZHAYETS 4 02 May 03:26:02 03:28:52 17° 60° (ENE) 03:31:44
BEESAT 2 02 May 03:27:35 03:30:55 24° 39° (NE) 03:34:14 435.950
PCSat 02 May 03:28:50 03:32:15 17° 255° (WSW) 03:35:40 145.827
KKS-1 02 May 03:28:55 03:32:38 26° 64° (ENE) 03:36:21 437.445
ITUPSAT 1 02 May 03:39:07 03:43:37 42° 262° (W) 03:48:09 437.325
Cosmos 2499 02 May 03:39:45 03:46:22 42° 289° (WNW) 03:53:05 435.465 / 435.565
STARS 02 May 03:48:30 03:51:56 22° 63° (ENE) 03:55:23 437.465
SWISSCUBE 02 May 03:49:31 03:53:43 30° 265° (W) 03:57:54 437.505
DANDE 02 May 03:49:53 03:56:07 87° 79° (E) 04:03:58 436.750
RS-15 02 May 03:59:04 04:09:37 34° 5° (N) 04:20:30 29.354- 29.394
BEESAT 02 May 04:24:17 04:27:21 17° 270° (W) 04:30:25 436.000
ITAMSAT 1 02 May 04:36:23 04:41:36 70° 104° (ESE) 04:46:46 435.822/435.867
Gurwin Techsat 1B 02 May 04:46:26 04:51:30 46° 292° (WNW) 04:56:33 435.225
AIST 2 02 May 04:51:46 04:54:44 18° 34° (NE) 04:57:40 435.215
GONETS M04 02 May 04:58:38 05:02:19 13° 313° (NW) 05:06:00
CUSAT 1 02 May 04:59:48 05:04:48 21° 276° (W) 05:10:13 437.405
BEESAT 3 02 May 04:59:49 05:03:24 33° 242° (WSW) 05:06:56 437.485
Oscar 19 02 May 05:00:33 05:03:55 18° 303° (WNW) 05:07:15 437.125/150
MOZHAYETS 4 02 May 05:01:00 05:05:33 68° 258° (WSW) 05:10:07
JAS-2 02 May 05:04:36 05:10:03 22° 307° (NW) 05:15:37 435.910
KKS-1 02 May 05:04:51 05:09:02 38° 262° (W) 05:13:16 437.445
BEESAT 2 02 May 05:05:08 05:09:00 48° 239° (WSW) 05:12:49 435.950
AO-7 02 May 05:06:59 05:14:57 47° 100° (E) 05:22:54 29.400- 29.500
CUBESAT XI-V 02 May 05:07:56 05:11:19 21° 62° (ENE) 05:14:44 437.345
YUBILEINY 02 May 05:20:04 05:26:39 23° 58° (ENE) 05:33:12 435.215
STARS 02 May 05:23:47 05:28:02 45° 261° (W) 05:32:20 437.465
DANDE 02 May 05:34:02 05:38:33 20° 273° (W) 05:43:42 436.750
STRAND 1 02 May 06:07:29 06:08:48 11° 52° (NE) 06:10:07 437.568
Cosmos 2491 02 May 06:10:22 06:15:40 18° 73° (ENE) 06:20:58 435.465 / 435.565
RS-15 02 May 06:13:40 06:25:34 54° 37° (NE) 06:37:36 29.354- 29.394
ITAMSAT 1 02 May 06:16:55 06:20:32 20° 302° (WNW) 06:24:10 435.822/435.867
HORYU 2 02 May 06:19:45 06:24:07 55° 101° (E) 06:28:27 437.375
AIST 2 02 May 06:29:35 06:33:46 84° 233° (SW) 06:37:54 435.215
CUBESAT XI-V 02 May 06:43:52 06:48:22 52° 261° (W) 06:52:54 437.345
Cubesat XI-IV 02 May 06:44:17 06:46:57 14° 87° (E) 06:49:37 437.490
NOAA 15 02 May 06:44:24 06:48:22 21° 91° (E) 06:52:17 137.62
AO-7 02 May 06:59:55 07:07:46 48° 301° (WNW) 07:15:38 29.400- 29.500
YUBILEINY 02 May 07:16:02 07:24:48 89° 82° (E) 07:33:33 435.215
Cosmos 2504 02 May 07:24:31 07:31:03 31° 67° (ENE) 07:37:56 435.465 / 435.565
GOMX 1 02 May 07:30:30 07:34:34 21° 89° (E) 07:38:30 467.674
CUTE-I 02 May 07:38:23 07:43:24 40° 98° (E) 07:48:23 437.470
STRAND 1 02 May 07:41:58 07:47:00 64° 72° (ENE) 07:52:04 437.568
NOAA 18 02 May 07:44:28 07:49:52 57° 102° (ESE) 07:55:13 137.9125
BRITE-PL 02 May 07:51:46 07:57:25 58° 99° (E) 08:02:59 437.365/2234.400
HORYU 2 02 May 07:57:14 08:00:18 19° 299° (WNW) 08:03:21 437.375
Cosmos 2491 02 May 08:02:11 08:10:58 78° 96° (E) 08:19:51 435.465 / 435.565
SO-50 02 May 08:07:14 08:11:43 36° 118° (ESE) 08:16:13 436.795
M-CUBED/EXP-1 PRIME 02 May 08:11:55 08:14:55 20° 97° (E) 08:17:45 437.505
LilacSat-2 02 May 08:19:16 08:23:07 77° 285° (WNW) 08:26:53 437.200
HO-68 02 May 08:21:44 08:25:35 15° 86° (E) 08:29:25 435.675
Cubesat XI-IV 02 May 08:22:24 08:27:45 88° 287° (WNW) 08:33:06 437.490
NOAA 15 02 May 08:23:18 08:28:34 61° 290° (WNW) 08:33:47 137.62
RS-15 02 May 08:26:35 08:38:36 64° 243° (WSW) 08:50:38 29.354- 29.394
PRISM 02 May 08:28:10 08:31:55 37° 68° (ENE) 08:35:43 437.425
AUBIESAT-1 02 May 08:31:00 08:34:21 26° 100° (E) 08:37:29 437.475
CANX-2 02 May 08:31:45 08:32:35 10° 87° (E) 08:33:25 2200.000
ISS 02 May 08:44:40 08:47:33 29° 142° (SE) 08:50:27 145.825
AO-7 02 May 08:54:32 08:58:35 15° 324° (NW) 09:02:39 29.400- 29.500
CUTE 1.7 + AOD 2 02 May 09:02:44 09:05:53 20° 92° (E) 09:09:01 437.475
DOVE 4 02 May 09:07:21 09:12:34 73° 102° (ESE) 09:17:31 437.250
GOMX 1 02 May 09:07:39 09:13:06 64° 288° (WNW) 09:18:20 467.674
YUBILEINY 02 May 09:14:21 09:20:25 22° 283° (WNW) 09:26:30 435.215
Cosmos 2504 02 May 09:17:30 09:24:52 61° 267° (W) 09:32:45 435.465 / 435.565
CUTE-I 02 May 09:18:40 09:23:21 32° 296° (WNW) 09:28:01 437.470
STRAND 1 02 May 09:23:07 09:26:38 19° 270° (W) 09:30:11 437.568
NOAA 18 02 May 09:25:48 09:30:11 25° 300° (WNW) 09:34:32 137.9125
ANTELSAT 02 May 09:28:06 09:28:53 10° 56° (NE) 09:29:40 437.575/2403.000
BRITE-PL 02 May 09:30:51 09:35:29 26° 298° (WNW) 09:40:06 437.365/2234.400
SEEDS 02 May 09:30:54 09:34:34 29° 95° (E) 09:38:13 437.485
COMPASS 1 02 May 09:35:43 09:39:07 24° 94° (E) 09:42:29 437.405
M-CUBED/EXP-1 PRIME 02 May 09:45:53 09:49:42 38° 298° (WNW) 09:53:12 437.505
SO-50 02 May 09:47:33 09:52:12 41° 317° (NW) 09:56:51 436.795
